[[{"header":{"parameterUnit":"m.s-1","parameterCategory":1,"la1":30.2991,"la2":30.254,"lo1":-89.0895,"lo2":-89.0444,"dy":0.0017,"dx":0.0017,"nx":28,"ny":28,"refTime":"2023-09-24T03:00:00:Z","depth":0,"parameterNumber":2,"parameterNumberName":"U-component_of_WINDS"},"data":[0,0,0,0,0,0,0,0,0,0,0,0,0,0,0,0,0,0,0,0,0,0,0,0,0,0,0,0,0,0,0,0,0,0,0,0,0,0,0,0,0,0,0,0,0,0,0,0,0,0,0,0,0,0,0,0,0,0,0.115,0.115,0,0.1173,0.1173,0.1174,0.1189,0.1189,0.1189,0.1189,0.1213,0.1213,0.1214,0,0,0,0,0,0,0,0,0,0,0,0,0,0.1117,0.1118,0.115,0.115,0.115,0.1173,0.1173,0.1174,0.1189,0.1189,0.1189,0.119,0.1213,0.1213,0.1214,0,0,0,0,0,0,0,0,0,0,0,0,0,0.1135,0.1118,0.115,0.1161,0.1162,0.1173,0.1173,0.1174,0.1189,0.1189,0.1189,0.119,0.1212,0.1213,0.1214,0.1216,0,0,0.1216,0.1217,0,0,0,0,0,0,0,0,0.1134,0.1136,0.1159,0.116,0.1162,0.1178,0.117,0.1188,0.1189,0.1179,0.1189,0.119,0.1201,0.1203,0.1207,0.1217,0.1218,0.1216,0.1217,0.1217,0.1217,0,0,0,0,0,0,0,0.1133,0.1135,0.1159,0.1159,0.1161,0.1164,0.1167,0.1174,0.1189,0.118,0.1181,0.1184,0.1202,0.1206,0.1208,0.1218,0.1216,0.1217,0.1218,0.1218,0.1229,0.1229,0,0,0,0,0,0,0.113,0.1134,0.1158,0.116,0.1148,0.1165,0.1168,0.1173,0.1189,0.1191,0.1183,0.1184,0.1205,0.1207,0.1208,0.1211,0.1217,0.1218,0.1218,0.1229,0.1229,0.1229,0,0,0,0,0,0,0.1129,0.1132,0.1157,0.1147,0.1151,0.1165,0.1171,0.1173,0.1177,0.1192,0.1194,0.1185,0.1205,0.1207,0.1213,0.1212,0.1218,0.1219,0.1229,0.1229,0.1229,0.1215,0,0,0,0,0,0,0.1128,0.1131,0.1133,0.1147,0.1151,0.1162,0.1171,0.1174,0.1179,0.118,0.1194,0.1196,0.1205,0.1212,0.1214,0.1213,0.122,0.123,0.1229,0.1229,0.1216,0.1215,0.1214,0,0,0,0,0,0.1127,0.1128,0.1133,0.1136,0.1153,0.1162,0.1165,0.1175,0.1179,0.118,0.1188,0.1196,0.1212,0.1213,0.1215,0.1214,0.123,0.1229,0.1229,0.1217,0.1215,0.1214,0,0,0,0,0,0,0.1113,0.113,0.1136,0.1142,0.115,0.1165,0.1167,0.1173,0.1181,0.1182,0.1194,0.1197,0.1202,0.1209,0.121,0.1216,0.1221,0.1221,0.1211,0.121,0.1209,0.1207,0.122,0,0,0,0,0,0.1111,0.1117,0.1132,0.1136,0.114,0.1152,0.1157,0.1164,0.1174,0.1177,0.1187,0.1195,0.1202,0.1206,0.1213,0.1217,0.122,0.1217,0.1216,0.1215,0.1215,0.1216,0.1215,0.1227,0.1227,0.1227,0,0,0.1106,0.1117,0.112,0.1133,0.1141,0.1147,0.1155,0.1161,0.1166,0.1178,0.1184,0.1191,0.1202,0.1206,0.1209,0.1212,0.1212,0.1214,0.1213,0.1214,0.1216,0.1214,0.1213,0.1227,0.1227,0.1227,0,0,0.1101,0.111,0.1113,0.1121,0.1132,0.114,0.1141,0.1154,0.1159,0.1165,0.1174,0.1179,0.1191,0.1198,0.1203,0.1198,0.1205,0.12,0.1194,0.1195,0.1194,0.1193,0.119,0.1189,0.12,0.12,0.12,0,0.1094,0.1103,0.1114,0.112,0.1125,0.1136,0.1139,0.1146,0.1159,0.1162,0.1165,0.1179,0.1187,0.1193,0.1192,0.1196,0.1196,0.1199,0.1193,0.1192,0.1192,0.1189,0.1189,0.1199,0.1199,0.1199,0.1199,0,0.1094,0.11,0.1101,0.1113,0.1119,0.1123,0.1134,0.1138,0.1144,0.1152,0.1157,0.1167,0.1176,0.1178,0.1184,0.1184,0.1185,0.1191,0.1197,0.119,0.1188,0.1187,0.1198,0.1199,0.1199,0.1199,0,0,0.1081,0.1098,0.1099,0.1104,0.1116,0.1121,0.1125,0.1134,0.1136,0.1144,0.1148,0.1157,0.1161,0.1167,0.1174,0.1175,0.117,0.118,0.1181,0.1177,0.1169,0.1164,0.1163,0.1174,0.1174,0.1174,0.1168,0,0.1078,0.1086,0.1095,0.11,0.1105,0.1115,0.1119,0.1127,0.1133,0.1138,0.1146,0.1151,0.1158,0.1161,0.1162,0.117,0.1168,0.1171,0.1177,0.1177,0.1173,0.1162,0.1158,0.1152,0.1167,0.1167,0.1167,0,0.1075,0.1082,0.1087,0.1098,0.11,0.1103,0.1111,0.1116,0.1124,0.1129,0.1134,0.1142,0.1146,0.1151,0.1156,0.1158,0.1161,0.1165,0.1165,0.1166,0.1171,0.1162,0.115,0.1149,0.1166,0.1166,0.1166,0,0.1064,0.1075,0.1079,0.1083,0.1096,0.1098,0.1103,0.1112,0.1116,0.1122,0.1125,0.1132,0.1136,0.1141,0.1149,0.1153,0.1153,0.116,0.1157,0.1157,0.1157,0.1156,0.1144,0.1159,0.1159,0.1159,0.1159,0,0.1059,0.1062,0.1075,0.1077,0.108,0.109,0.1093,0.1099,0.1106,0.111,0.1119,0.1122,0.1133,0.1137,0.1144,0.1147,0.1149,0.1152,0.1154,0.1151,0.1151,0.1153,0.1154,0.1159,0.1159,0.1159,0.1159,0,0.1048,0.1057,0.1062,0.1074,0.1076,0.1078,0.1087,0.109,0.1096,0.1101,0.1102,0.1113,0.1118,0.1127,0.1135,0.1139,0.114,0.1144,0.1138,0.1139,0.1135,0.1135,0.1124,0.1122,0.1138,0.1138,0.1138,0,0.1044,0.1046,0.1057,0.106,0.1065,0.107,0.1074,0.1083,0.1087,0.1096,0.1097,0.1102,0.1108,0.1115,0.1123,0.1129,0.1132,0.1128,0.1133,0.113,0.1131,0.1131,0.113,0.1126,0.1126,0.1126,0.1126,0,0.1036,0.104,0.1045,0.1051,0.1055,0.1061,0.1067,0.1069,0.1079,0.1083,0.1088,0.1092,0.1099,0.1104,0.1111,0.1116,0.1122,0.1124,0.1123,0.1121,0.1117,0.1118,0.1134,0.1124,0.1124,0.1125,0.1125,0.1125,0.1028,0.103,0.1038,0.1043,0.1048,0.1053,0.1055,0.1062,0.1066,0.1073,0.1078,0.1082,0.1089,0.1099,0.1103,0.1107,0.111,0.1109,0.1109,0.1109,0.1107,0.1116,0.1108,0.1108,0.1108,0.1108,0.1108,0,0.102,0.1025,0.1029,0.1037,0.104,0.1046,0.1052,0.1055,0.1058,0.1064,0.1069,0.1074,0.1078,0.1086,0.1092,0.1092,0.1095,0.1093,0.1093,0.1094,0.1104,0.1104,0.1091,0.1091,0.1091,0.1091,0.1091,0.1091,0.1016,0.1019,0.1023,0.1028,0.1033,0.1037,0.104,0.1045,0.1049,0.1054,0.1058,0.1063,0.107,0.1075,0.1079,0.1081,0.1083,0.108,0.1083,0.1092,0.1094,0.1095,0.1095,0.108,0.108,0.1072,0.1072,0.1072]},{"header":{"parameterUnit":"m.s-1","parameterCategory":1,"la1":30.2991,"la2":30.254,"lo1":-89.0895,"lo2":-89.0444,"dy":0.0017,"dx":0.0017,"nx":28,"ny":28,"refTime":"2023-09-24T03:00:00:Z","depth":0,"parameterNumber":3,"parameterNumberName":"V-component_of_WINDS"},"data":[0,0,0,0,0,0,0,0,0,0,0,0,0,0,0,0,0,0,0,0,0,0,0,0,0,0,0,0,0,0,0,0,0,0,0,0,0,0,0,0,0,0,0,0,0,0,0,0,0,0,0,0,0,0,0,0,0,0,4.6037,4.6037,0,4.6014,4.6014,4.6014,4.5921,4.5919,4.5917,4.5915,4.5893,4.5894,4.5896,0,0,0,0,0,0,0,0,0,0,0,0,0,4.6003,4.6004,4.6037,4.6037,4.6037,4.6014,4.6014,4.6014,4.5921,4.5919,4.5916,4.5914,4.5893,4.5894,4.5896,0,0,0,0,0,0,0,0,0,0,0,0,0,4.6003,4.6004,4.6037,4.5988,4.5983,4.6014,4.6014,4.6014,4.5922,4.5919,4.5915,4.5912,4.5892,4.5894,4.5896,4.5974,0,0,4.5903,4.5904,0,0,0,0,0,0,0,0,4.6003,4.6004,4.5995,4.5991,4.5986,4.5967,4.5994,4.6001,4.5923,4.5945,4.5915,4.5911,4.5921,4.592,4.5923,4.5973,4.5972,4.5903,4.5904,4.5905,4.5906,0,0,0,0,0,0,0,4.6003,4.6004,4.6028,4.5995,4.599,4.5967,4.5964,4.5995,4.5951,4.5943,4.5936,4.5935,4.5917,4.5921,4.5922,4.5972,4.5903,4.5905,4.5906,4.5907,4.6083,4.6087,0,0,0,0,0,0,4.601,4.6005,4.6029,4.6028,4.5987,4.5971,4.5967,4.5977,4.5951,4.5944,4.5937,4.593,4.5919,4.5919,4.5921,4.6008,4.5905,4.5907,4.5908,4.608,4.6084,4.6088,0,0,0,0,0,0,4.6009,4.6013,4.603,4.6014,4.6015,4.5975,4.5987,4.5978,4.5981,4.5946,4.5938,4.5949,4.5916,4.5918,4.5961,4.6006,4.5908,4.591,4.6076,4.6081,4.6086,4.6186,0,0,0,0,0,0,4.6009,4.6013,4.6042,4.6016,4.6016,4.6071,4.5989,4.598,4.5985,4.5976,4.5955,4.5949,4.5914,4.5958,4.5963,4.6008,4.5912,4.6072,4.6078,4.6084,4.6178,4.6194,4.6207,0,0,0,0,0,4.6008,4.6072,4.6044,4.6047,4.6051,4.6073,4.6073,4.6032,4.5989,4.6018,4.5995,4.5949,4.6001,4.5964,4.5968,4.6014,4.6069,4.6076,4.6084,4.6172,4.6191,4.6207,0,0,0,0,0,0,4.6105,4.6067,4.6036,4.6093,4.6087,4.6058,4.6092,4.6053,4.6059,4.605,4.5999,4.5995,4.6046,4.6034,4.5993,4.6087,4.6027,4.6036,4.6092,4.611,4.6124,4.6125,4.5914,0,0,0,0,0,4.6133,4.6154,4.612,4.6174,4.6172,4.6133,4.6141,4.6109,4.6101,4.6098,4.6079,4.6073,4.6088,4.6099,4.611,4.6177,4.617,4.6211,4.6225,4.6237,4.6245,4.6278,4.6295,4.6113,4.6113,4.6113,0,0,4.6191,4.6173,4.6189,4.6193,4.6184,4.6207,4.6132,4.6159,4.6175,4.6103,4.6141,4.6128,4.6118,4.6173,4.6196,4.6165,4.6294,4.6247,4.6257,4.6258,4.6287,4.6305,4.632,4.6118,4.6117,4.6116,0,0,4.6308,4.6297,4.634,4.6333,4.632,4.6294,4.6305,4.6281,4.6268,4.6307,4.6252,4.6272,4.6299,4.6293,4.6294,4.6409,4.6367,4.6415,4.6489,4.6522,4.6536,4.6549,4.6588,4.6603,4.6423,4.6424,4.6424,0,4.6382,4.6413,4.6367,4.6397,4.64,4.6335,4.6378,4.6374,4.6367,4.637,4.6335,4.6367,4.6356,4.6408,4.6436,4.644,4.6449,4.6416,4.6538,4.655,4.6561,4.6598,4.6613,4.6429,4.6429,4.6428,4.6427,0,4.6504,4.6526,4.6562,4.6555,4.6562,4.6599,4.6559,4.6572,4.654,4.6518,4.6557,4.6542,4.6549,4.6559,4.6529,4.6607,4.6588,4.6547,4.6485,4.6584,4.6618,4.6632,4.6437,4.6435,4.6434,4.6432,0,0,4.668,4.6647,4.6661,4.6656,4.6638,4.6655,4.6689,4.6695,4.6706,4.6704,4.673,4.6755,4.6716,4.6717,4.6686,4.6715,4.6805,4.6669,4.6668,4.6693,4.6889,4.6918,4.6936,4.6778,4.678,4.6782,4.6889,0,4.679,4.6844,4.6804,4.6865,4.6885,4.6824,4.6853,4.6846,4.6826,4.684,4.6818,4.6836,4.6784,4.6784,4.681,4.6789,4.6843,4.6781,4.6801,4.6803,4.6803,4.6954,4.6985,4.7086,4.6902,4.6904,4.6906,0,4.6925,4.6927,4.699,4.6966,4.6973,4.7,4.7002,4.7016,4.7006,4.699,4.6991,4.6952,4.6984,4.6925,4.6968,4.6926,4.6932,4.6923,4.6926,4.6925,4.6859,4.6955,4.7118,4.7132,4.6927,4.6925,4.6923,0,4.7044,4.7064,4.7103,4.7102,4.7076,4.7096,4.7086,4.7073,4.7079,4.7081,4.7084,4.7091,4.7094,4.71,4.7064,4.7025,4.7111,4.7049,4.7098,4.7099,4.7117,4.7116,4.7282,4.7125,4.7125,4.7125,4.7124,0,4.717,4.7211,4.7156,4.7181,4.7224,4.7178,4.7223,4.7207,4.7196,4.7216,4.7165,4.7186,4.7138,4.7153,4.7126,4.7164,4.7167,4.7154,4.7146,4.7158,4.7159,4.716,4.7151,4.7129,4.7128,4.7127,4.7126,0,4.731,4.7276,4.7315,4.7287,4.7281,4.7314,4.729,4.7312,4.7289,4.7315,4.7319,4.7283,4.7299,4.7264,4.7275,4.7256,4.7311,4.7293,4.7314,4.7308,4.7358,4.7353,4.7528,4.7548,4.7381,4.7382,4.7384,0,4.7392,4.7421,4.7396,4.7405,4.7398,4.7415,4.742,4.7376,4.7384,4.7375,4.7398,4.7409,4.7415,4.7443,4.7419,4.7427,4.7407,4.7468,4.7408,4.7418,4.7406,4.7404,4.7406,4.748,4.7482,4.7484,4.7485,0,4.7539,4.752,4.7529,4.7533,4.754,4.7541,4.7538,4.7549,4.7503,4.7514,4.7529,4.7534,4.7545,4.7556,4.7559,4.755,4.751,4.7504,4.7516,4.7527,4.7537,4.753,4.7346,4.75,4.7499,4.7497,4.7497,4.7496,4.7651,4.7674,4.7659,4.7671,4.7664,4.7663,4.7681,4.766,4.7671,4.7675,4.765,4.767,4.7659,4.7658,4.7653,4.7669,4.7641,4.7658,4.7662,4.7667,4.7674,4.7536,4.767,4.7669,4.7669,4.7668,4.7668,0,4.7794,4.7781,4.7793,4.779,4.7799,4.776,4.7755,4.7766,4.7784,4.7777,4.7784,4.7801,4.7812,4.7788,4.7796,4.7813,4.7795,4.7816,4.7813,4.7812,4.7699,4.7687,4.7831,4.7831,4.7831,4.783,4.783,4.783,4.7869,4.7905,4.7885,4.7917,4.7905,4.7923,4.7923,4.7922,4.7916,4.7936,4.7945,4.7929,4.7915,4.7921,4.793,4.7923,4.7927,4.7955,4.7941,4.7836,4.782,4.7805,4.7793,4.7957,4.7957,4.8052,4.8053,4.8054]}]]